Regional Weather Roundup
Issued by NWS

Home | Current Version | Previous Version | Graphics & Text | Print | Product List | Glossary On
Versions: 1 2 3 4 5 6 7 8 9 10 11 12 13 14 15 16 17 18 19 20 21 22 23 24 25 26 27 28 29 30 31 32 33 34 35 36 37 38 39 40 41 42 43 44 45 46 47 48 49 50
134
ASUS43 KLMK 030010
RWRKY
KENTUCKY REGIONAL WEATHER ROUNDUP
NATIONAL WEATHER SERVICE LOUISVILLE KY
800 PM EDT MON MAY 02 2016

NOTE "FAIR" INDICATES FEW OR NO CLOUDS BELOW 12,000 FEET
WITH NO SIGNIFICANT WEATHER AND/OR OBSTRUCTIONS TO VISIBILITY.

KYZ001>023-026-027-061>063-070>075-030100-
WESTERN AND SOUTH CENTRAL KENTUCKY

CITY           SKY/WX    TMP DP  RH WIND       PRES   REMARKS
PADUCAH        MOCLDY    61  49  64 N10G20    29.95S
HENDERSON      CLOUDY    59  48  67 NW13      29.96R
OWENSBORO      MOCLDY    61  51  69 N10       29.97R
HOPKINSVILLE   CLOUDY    62  57  85 W3        29.93S
BOWLING GREEN  CLOUDY    62  56  80 CALM      29.93F
GLASGOW        CLOUDY    59  59 100 CALM      29.93F
$$

KYZ024-025-028>034-038-045-046-053-030100-
NORTH CENTRAL KENTUCKY

CITY           SKY/WX    TMP DP  RH WIND       PRES   REMARKS
LOUISVILLE/SDF CLOUDY    63  50  62 NW8       29.93S
LOUISVILLE/LOU CLOUDY    63  50  62 NW6       29.93F
FORT KNOX      CLOUDY    61  53  73 NW5       29.92S
$$

KYZ035>037-039>044-047>052-055>060-089>105-030100-
NORTHEAST KENTUCKY

CITY           SKY/WX    TMP DP  RH WIND       PRES   REMARKS
LEXINGTON      CLOUDY    62  57  83 SW7       29.93S
COVINGTON      CLOUDY    61  52  72 W9        29.93R
FRANKFORT      CLOUDY    63  50  62 NW3       29.92S
$$

KYZ054-064>069-076>088-106>120-030100-
SOUTHEAST KENTUCKY

CITY           SKY/WX    TMP DP  RH WIND       PRES   REMARKS
JACKSON        LGT RAIN  58  57  97 CALM      29.92S VSB 1/2
LONDON         CLOUDY    60  58  92 S5        29.93R
SOMERSET       CLOUDY    59  59 100 CALM      29.94F
MIDDLESBORO    CLOUDY    60  59  96 CALM      29.95R
MONTICELLO     CLOUDY    62  60  93 NE8       29.95S
$$





USA.gov is the U.S. government's official web portal to all federal, state and local government web resources and services.